[[{"header":{"parameterUnit":"m.s-1","parameterCategory":1,"la1":30.2991,"la2":30.254,"lo1":-89.0895,"lo2":-89.0444,"dy":0.0017,"dx":0.0017,"nx":28,"ny":28,"refTime":"2026-02-16T09:00:00:Z","depth":0,"parameterNumber":2,"parameterNumberName":"U-component_of_WINDS"},"data":[0,0,0,0,0,0,0,0,0,0,0,0,0,0,0,0,0,0,0,0,0,0,0,0,0,0,0,0,0,0,0,0,0,0,0,0,0,0,0,0,0,0,0,0,0,0,0,0,0,0,0,0,0,0,0,0,0,0,-0.766,-0.7658,0,-0.7463,-0.7461,-0.7459,-0.7352,-0.7352,-0.7351,-0.7351,-0.7152,-0.7148,-0.7143,0,0,0,0,0,0,0,0,0,0,0,0,0,-0.7948,-0.7943,-0.7661,-0.7658,-0.7656,-0.7463,-0.7461,-0.7458,-0.7352,-0.7352,-0.7351,-0.7351,-0.7154,-0.7148,-0.7142,0,0,0,0,0,0,0,0,0,0,0,0,0,-0.7794,-0.7942,-0.7661,-0.7579,-0.757,-0.7464,-0.7461,-0.7457,-0.7352,-0.7352,-0.7351,-0.7351,-0.7156,-0.7149,-0.7141,-0.7102,0,0,-0.7118,-0.7115,0,0,0,0,0,0,0,0,-0.7803,-0.7784,-0.7594,-0.7585,-0.7574,-0.7431,-0.7489,-0.7338,-0.7352,-0.7435,-0.7351,-0.7351,-0.7246,-0.7231,-0.7195,-0.7093,-0.7084,-0.7117,-0.7113,-0.711,-0.7107,0,0,0,0,0,0,0,-0.7814,-0.7792,-0.7582,-0.7591,-0.7579,-0.7553,-0.7531,-0.746,-0.7345,-0.7428,-0.7419,-0.7397,-0.724,-0.7202,-0.7189,-0.7081,-0.7118,-0.7111,-0.7106,-0.7103,-0.6936,-0.6937,0,0,0,0,0,0,-0.7837,-0.7801,-0.7589,-0.7576,-0.769,-0.7549,-0.7524,-0.7478,-0.7345,-0.7325,-0.7398,-0.7393,-0.7215,-0.7198,-0.7182,-0.7126,-0.711,-0.7102,-0.7098,-0.6936,-0.6936,-0.6937,0,0,0,0,0,0,-0.7844,-0.7819,-0.7597,-0.7686,-0.7656,-0.7544,-0.7493,-0.7474,-0.7436,-0.7323,-0.7302,-0.738,-0.7214,-0.7193,-0.7122,-0.7118,-0.7099,-0.7092,-0.6936,-0.6936,-0.6937,-0.7016,0,0,0,0,0,0,-0.7853,-0.7822,-0.7806,-0.7687,-0.7652,-0.754,-0.7493,-0.7471,-0.7423,-0.7414,-0.73,-0.7281,-0.7212,-0.7134,-0.7115,-0.7107,-0.7086,-0.6936,-0.6936,-0.6936,-0.7013,-0.7019,-0.7024,0,0,0,0,0,-0.7863,-0.7837,-0.7805,-0.778,-0.7629,-0.754,-0.752,-0.744,-0.7423,-0.7405,-0.7333,-0.7285,-0.7122,-0.7128,-0.7105,-0.7095,-0.6936,-0.6936,-0.6936,-0.7011,-0.7018,-0.7023,0,0,0,0,0,0,-0.796,-0.782,-0.7783,-0.7718,-0.7641,-0.7522,-0.7497,-0.745,-0.7378,-0.7373,-0.7278,-0.7254,-0.7192,-0.7137,-0.7146,-0.705,-0.7024,-0.702,-0.7088,-0.7094,-0.7099,-0.7113,-0.708,0,0,0,0,0,-0.7973,-0.7912,-0.7793,-0.7747,-0.771,-0.7611,-0.7569,-0.7514,-0.7431,-0.7399,-0.7321,-0.7244,-0.7175,-0.7131,-0.7062,-0.7005,-0.6978,-0.6987,-0.6992,-0.6997,-0.6994,-0.6959,-0.6962,-0.6937,-0.6937,-0.6937,0,0,-0.8001,-0.7917,-0.7884,-0.7764,-0.7698,-0.7637,-0.7584,-0.7522,-0.7476,-0.739,-0.7318,-0.7258,-0.7166,-0.7102,-0.707,-0.7054,-0.6995,-0.6997,-0.7002,-0.6996,-0.696,-0.6962,-0.6965,-0.6938,-0.6938,-0.6938,0,0,-0.8019,-0.795,-0.7903,-0.7837,-0.7738,-0.7672,-0.7661,-0.7548,-0.7505,-0.7431,-0.7364,-0.7309,-0.7193,-0.7129,-0.7081,-0.7075,-0.7028,-0.7056,-0.7083,-0.705,-0.7051,-0.7053,-0.705,-0.705,-0.7053,-0.7053,-0.7054,0,-0.8066,-0.797,-0.7885,-0.7826,-0.7775,-0.7693,-0.7645,-0.7586,-0.747,-0.7437,-0.7421,-0.7272,-0.7204,-0.7123,-0.7122,-0.7086,-0.7071,-0.7068,-0.7058,-0.7058,-0.7058,-0.7054,-0.7054,-0.7057,-0.7057,-0.7056,-0.7056,0,-0.8033,-0.7968,-0.7942,-0.783,-0.7776,-0.7723,-0.763,-0.7586,-0.7536,-0.7472,-0.7398,-0.7313,-0.7225,-0.7202,-0.7153,-0.7114,-0.7107,-0.7076,-0.7047,-0.7066,-0.706,-0.7058,-0.7063,-0.7061,-0.706,-0.7059,0,0,-0.8107,-0.7947,-0.7939,-0.7887,-0.7771,-0.7719,-0.7662,-0.7574,-0.7538,-0.7461,-0.7411,-0.7314,-0.7284,-0.723,-0.7173,-0.7145,-0.7144,-0.7116,-0.7112,-0.7123,-0.7095,-0.7119,-0.7119,-0.7113,-0.7112,-0.7112,-0.7103,0,-0.8108,-0.8001,-0.7922,-0.7846,-0.7784,-0.7705,-0.7655,-0.758,-0.7518,-0.7458,-0.7391,-0.7323,-0.7288,-0.7255,-0.7223,-0.7151,-0.7137,-0.7151,-0.7066,-0.7064,-0.709,-0.7116,-0.7141,-0.7137,-0.71,-0.71,-0.71,0,-0.8095,-0.8019,-0.7936,-0.7825,-0.7796,-0.7753,-0.7666,-0.7609,-0.7521,-0.7478,-0.7418,-0.7359,-0.7297,-0.7275,-0.7187,-0.7198,-0.7159,-0.7118,-0.7116,-0.7105,-0.7082,-0.7105,-0.7134,-0.7133,-0.7096,-0.7096,-0.7096,0,-0.8156,-0.8033,-0.7967,-0.7925,-0.7794,-0.7766,-0.771,-0.7622,-0.7574,-0.7498,-0.7465,-0.7384,-0.734,-0.7278,-0.7199,-0.7191,-0.712,-0.7092,-0.7083,-0.7085,-0.7071,-0.7073,-0.7094,-0.7048,-0.7048,-0.7048,-0.7048,0,-0.8166,-0.8118,-0.7992,-0.7952,-0.7896,-0.7806,-0.7754,-0.7692,-0.7614,-0.756,-0.7487,-0.7439,-0.7338,-0.7278,-0.7216,-0.7152,-0.7133,-0.7097,-0.7081,-0.7103,-0.7107,-0.7075,-0.7073,-0.7047,-0.7047,-0.7047,-0.7047,0,-0.8225,-0.8138,-0.8061,-0.7943,-0.7913,-0.7877,-0.7776,-0.7734,-0.7669,-0.7602,-0.7581,-0.7479,-0.7404,-0.7319,-0.7216,-0.7175,-0.7115,-0.7093,-0.7145,-0.7135,-0.7131,-0.7132,-0.7131,-0.7126,-0.7085,-0.7086,-0.7086,0,-0.8236,-0.8197,-0.8075,-0.8033,-0.7979,-0.7913,-0.7862,-0.7773,-0.7724,-0.762,-0.7591,-0.751,-0.744,-0.7324,-0.7241,-0.7163,-0.7137,-0.7142,-0.7125,-0.7148,-0.7136,-0.7139,-0.7134,-0.7147,-0.7148,-0.7148,-0.7149,0,-0.8265,-0.8224,-0.8154,-0.8069,-0.801,-0.7939,-0.7866,-0.7836,-0.7731,-0.768,-0.7602,-0.7548,-0.7442,-0.7362,-0.7273,-0.7217,-0.7166,-0.7155,-0.7149,-0.717,-0.7202,-0.7184,-0.7157,-0.7155,-0.7155,-0.7154,-0.7154,-0.7154,-0.8299,-0.8261,-0.8168,-0.8092,-0.8027,-0.7959,-0.7913,-0.7841,-0.7774,-0.7679,-0.7631,-0.7553,-0.7466,-0.734,-0.7286,-0.7224,-0.7207,-0.7198,-0.7196,-0.7195,-0.7201,-0.7212,-0.7208,-0.7207,-0.7207,-0.7207,-0.7207,0,-0.8324,-0.826,-0.8191,-0.8089,-0.803,-0.7985,-0.7901,-0.7854,-0.7786,-0.7708,-0.7641,-0.755,-0.7473,-0.7383,-0.73,-0.7268,-0.7243,-0.7249,-0.7251,-0.7238,-0.7221,-0.7234,-0.7271,-0.7271,-0.7271,-0.7271,-0.7271,-0.7271,-0.833,-0.8261,-0.8209,-0.8108,-0.8044,-0.7966,-0.7922,-0.7859,-0.7796,-0.7698,-0.7632,-0.7574,-0.7492,-0.7402,-0.7329,-0.7305,-0.7277,-0.7291,-0.726,-0.7245,-0.724,-0.7235,-0.7246,-0.7286,-0.7286,-0.7282,-0.7282,-0.7282]},{"header":{"parameterUnit":"m.s-1","parameterCategory":1,"la1":30.2991,"la2":30.254,"lo1":-89.0895,"lo2":-89.0444,"dy":0.0017,"dx":0.0017,"nx":28,"ny":28,"refTime":"2026-02-16T09:00:00:Z","depth":0,"parameterNumber":3,"parameterNumberName":"V-component_of_WINDS"},"data":[0,0,0,0,0,0,0,0,0,0,0,0,0,0,0,0,0,0,0,0,0,0,0,0,0,0,0,0,0,0,0,0,0,0,0,0,0,0,0,0,0,0,0,0,0,0,0,0,0,0,0,0,0,0,0,0,0,0,3.2002,3.2002,0,3.1926,3.1925,3.1924,3.1851,3.185,3.1849,3.1848,3.1765,3.1764,3.1763,0,0,0,0,0,0,0,0,0,0,0,0,0,3.2079,3.2078,3.2002,3.2001,3.2001,3.1926,3.1925,3.1924,3.1851,3.185,3.1849,3.1848,3.1766,3.1764,3.1762,0,0,0,0,0,0,0,0,0,0,0,0,0,3.2029,3.2078,3.2003,3.1955,3.195,3.1927,3.1925,3.1924,3.1851,3.185,3.1848,3.1847,3.1766,3.1764,3.1762,3.1778,0,0,3.1756,3.1755,0,0,0,0,0,0,0,0,3.2032,3.2026,3.1963,3.1958,3.1953,3.1897,3.1922,3.1875,3.1852,3.1889,3.1848,3.1846,3.181,3.1804,3.1793,3.1774,3.177,3.1756,3.1755,3.1754,3.1753,0,0,0,0,0,0,0,3.2035,3.2029,3.1972,3.1962,3.1956,3.1936,3.1927,3.1913,3.1858,3.1885,3.188,3.1872,3.1807,3.1795,3.179,3.1769,3.1756,3.1754,3.1753,3.1752,3.1759,3.176,0,0,0,0,0,0,3.2047,3.2032,3.1974,3.197,3.199,3.1936,3.1926,3.1916,3.1858,3.1848,3.1873,3.1869,3.1799,3.1793,3.1787,3.1802,3.1754,3.1752,3.1751,3.1757,3.1759,3.176,0,0,0,0,0,0,3.2049,3.2042,3.1978,3.1999,3.199,3.1936,3.1925,3.1915,3.1903,3.1849,3.1838,3.1872,3.1798,3.179,3.1781,3.1798,3.1751,3.1749,3.1756,3.1758,3.176,3.1833,0,0,0,0,0,0,3.2051,3.2043,3.205,3.2,3.1989,3.1975,3.1926,3.1915,3.1901,3.1894,3.1845,3.1835,3.1796,3.1784,3.1779,3.1795,3.1748,3.1754,3.1757,3.1759,3.1829,3.1837,3.1844,0,0,0,0,0,3.2054,3.2073,3.2051,3.2045,3.1997,3.1976,3.1969,3.1926,3.1903,3.1908,3.1873,3.1836,3.1797,3.1784,3.1777,3.1793,3.1753,3.1756,3.1759,3.1825,3.1836,3.1844,0,0,0,0,0,0,3.2125,3.2066,3.2041,3.2044,3.2016,3.1964,3.197,3.1938,3.1915,3.1909,3.1854,3.1843,3.1841,3.1815,3.1802,3.1804,3.1769,3.1771,3.1822,3.1832,3.1839,3.1847,3.1746,0,0,0,0,0,3.2142,3.2132,3.2079,3.2087,3.2074,3.2025,3.2014,3.1983,3.195,3.1938,3.1902,3.1871,3.1851,3.1839,3.1818,3.1823,3.1811,3.183,3.1838,3.1845,3.1848,3.1849,3.1857,3.1771,3.1771,3.177,0,0,3.2175,3.2141,3.2138,3.21,3.2075,3.2065,3.2015,3.2006,3.1998,3.1936,3.1927,3.1898,3.1859,3.1858,3.1856,3.1837,3.1869,3.1849,3.1855,3.1854,3.1853,3.1861,3.1869,3.1773,3.1772,3.1772,0,0,3.2231,3.2204,3.2209,3.2184,3.2146,3.2113,3.2114,3.2066,3.2046,3.2035,3.1989,3.1976,3.1943,3.1918,3.1901,3.1945,3.1911,3.1939,3.1981,3.1983,3.199,3.1996,3.2013,3.202,3.1942,3.1942,3.1942,0,3.2277,3.2262,3.2214,3.2209,3.2193,3.2137,3.2141,3.2118,3.2075,3.2065,3.2044,3.2002,3.1972,3.1964,3.1975,3.1962,3.1961,3.1946,3.1993,3.1998,3.2003,3.2019,3.2025,3.1946,3.1945,3.1945,3.1945,0,3.2321,3.231,3.2318,3.228,3.2264,3.2263,3.2214,3.2204,3.2173,3.2141,3.213,3.2092,3.2062,3.2057,3.2026,3.2044,3.2034,3.2004,3.1968,3.2016,3.203,3.2036,3.1951,3.195,3.1949,3.1948,0,0,3.2423,3.2357,3.2361,3.2343,3.2297,3.2287,3.2281,3.2254,3.2247,3.2217,3.2212,3.2185,3.2156,3.2137,3.2101,3.2103,3.2142,3.2072,3.207,3.2088,3.216,3.2186,3.2194,3.2117,3.2118,3.2119,3.2164,0,3.2473,3.2464,3.242,3.2423,3.2413,3.2358,3.2353,3.2323,3.2293,3.2278,3.2242,3.2225,3.2188,3.2176,3.2174,3.2138,3.2156,3.2133,3.2111,3.2111,3.2127,3.2201,3.2228,3.2273,3.2169,3.217,3.2171,0,3.2531,3.2508,3.2511,3.2464,3.2458,3.2456,3.2426,3.2413,3.2376,3.2354,3.2331,3.2292,3.2282,3.2246,3.2231,3.2217,3.2204,3.2184,3.2185,3.2184,3.2147,3.2204,3.2286,3.2294,3.2178,3.2178,3.2177,0,3.2609,3.2577,3.2575,3.2561,3.2505,3.2505,3.2481,3.2444,3.243,3.2403,3.2393,3.2364,3.2349,3.2327,3.228,3.2259,3.2271,3.2231,3.2252,3.2253,3.226,3.226,3.2344,3.2247,3.2247,3.2247,3.2247,0,3.2671,3.2676,3.2609,3.2608,3.2611,3.2558,3.2562,3.2532,3.2499,3.249,3.2439,3.2431,3.2368,3.2353,3.2315,3.2309,3.2301,3.2282,3.2273,3.2289,3.2292,3.2283,3.2279,3.2248,3.2248,3.2248,3.2247,0,3.276,3.2715,3.2709,3.2657,3.2644,3.2649,3.2603,3.2599,3.2564,3.2553,3.2547,3.2492,3.2471,3.2422,3.2386,3.2361,3.2365,3.2346,3.2379,3.2373,3.2397,3.2397,3.248,3.2489,3.2384,3.2385,3.2386,0,3.2804,3.2807,3.2755,3.2746,3.2726,3.2712,3.2697,3.2644,3.2631,3.2589,3.259,3.2565,3.2543,3.2511,3.2467,3.2439,3.2421,3.2451,3.2416,3.2432,3.2424,3.2426,3.2426,3.2461,3.2462,3.2463,3.2464,0,3.2889,3.2867,3.2849,3.2824,3.2809,3.2785,3.2759,3.2754,3.2694,3.2681,3.266,3.2643,3.2607,3.2583,3.2549,3.2522,3.2483,3.2475,3.2479,3.2497,3.2517,3.2508,3.2403,3.2474,3.2473,3.2472,3.2472,3.2471,3.2958,3.2958,3.2922,3.2904,3.2879,3.2855,3.285,3.2814,3.2796,3.2765,3.2733,3.2715,3.2676,3.2626,3.2602,3.2586,3.2566,3.2571,3.2572,3.2575,3.2583,3.2517,3.2578,3.2578,3.2578,3.2577,3.2577,0,3.3043,3.3016,3.3,3.2966,3.2951,3.2916,3.2885,3.2875,3.286,3.2828,3.2807,3.2782,3.2758,3.2711,3.2682,3.2678,3.2659,3.2672,3.2674,3.2668,3.2601,3.2602,3.2688,3.2688,3.2688,3.2688,3.2688,3.2688,3.3085,3.3084,3.3057,3.3041,3.3013,3.2998,3.2983,3.296,3.2935,3.291,3.289,3.286,3.2821,3.2789,3.2764,3.2751,3.2744,3.2763,3.2744,3.2683,3.2673,3.2663,3.2664,3.2761,3.2761,3.2813,3.2813,3.2814]}]]